Tracking 20721 objects as of 2-Jun-2020
HD Live streaming from Space Station
objects crossing your sky now

BREEZE-M R/B

Track BREEZE-M R/B now!


NORAD ID: 43433
Int'l Code: 2018-037B
Perigee: 35,672.1 km
Apogee: 41,871.5 km
Inclination: 1.9 °
Period: 1,590.9 minutes
Semi major axis: 45142 km
RCS: Unknown
Launch date: April 18, 2018
Source: Commonwealth of Independent States (former USSR) (CIS)
Launch site: TYURATAM MISSILE AND SPACE COMPLEX (TTMTR)

Note: This is a ROCKET BODY
aabbcc
Your satellite tracking list
Your tracking list is empty




NASA's NSSDC Master Catalog

Two Line Element Set (TLE):
1 43433U 18037B   20150.66640143 -.00000145 +00000-0 +00000-0 0  9995
2 43433 001.8880 092.7547 0686643 338.3289 018.4387 00.90515045007206
Source of the keplerian elements: AFSPC